Weather History for Richmond, VA

Change the Weather History Date:

Monday, September 16, 2013

  Actual Average Record
Temperature  
Mean Temperature 72 °F 71 °F  
Max Temperature 84 °F 81 °F 97 °F (1991)
Min Temperature 60 °F 60 °F 44 °F (1985)
Degree Days  
Heating Degree Days 0 1  
Month to date heating degree days 0 3  
Since 1 July heating degree days 0 4  
Cooling Degree Days 7 6  
Month to date cooling degree days 174 135  
Year to date cooling degree days 1579 1442  
Growing Degree Days 22 (Base 50)    
Moisture  
Dew Point 59 °F    
Average Humidity 72    
Maximum Humidity 90    
Minimum Humidity 54    
Precipitation  
Precipitation T in 0.15 in 4.53 in (1999)
Month to date precipitation 0.54 2.30  
Year to date precipitation 39.44 32.29  
Snow  
Snow 0.00 in 0.00 in 0.00 in (2002)
Month to date snowfall 0.0 0.0  
Since 1 July snowfall 0.0 0.0  
Snow Depth 0.00 in    
Sea Level Pressure  
Sea Level Pressure 30.14 in    
Wind  
Wind Speed 6 mph (NW)    
Max Wind Speed 17 mph    
Max Gust Speed 21 mph    
Visibility 10 miles    
Events Rain    
T = Trace of Precipitation, MM = Missing Value Source: NWS Daily Summary

Daily Weather History Graph

Daily Weather History Graph

Search for Another Location

Airport:

Trip Planner

Search our weather history database for the weather conditions in past years. The results will help you decide how hot, cold, wet, or windy it might be!

Date:

Astronomy

Sep. 16, 2013 Rise Set
Actual Time 6:52 AM EDT 7:15 PM EDT
Civil Twilight 6:26 AM EDT 7:41 PM EDT
Nautical Twilight 5:55 AM EDT 8:12 PM EDT
Astronomical Twilight 5:23 AM EDT 8:43 PM EDT
Moon 5:20 PM EDT (9/16) 3:39 AM EDT (9/16)
Length of Visible Light 13h 15m
Length of Day
12h 22m
Waxing Gibbous, 90% of the Moon is Illuminated
Sep 16
Waxing Gibbous
Sep 19
Full
Sep 26
Last Quarter
Oct 4
New
Oct 11
First Quarter

Hourly Weather History & Observations

Time (EDT) Temp. Heat Index Dew Point Humidity Pressure Visibility Wind Dir Wind Speed Gust Speed Precip Events Conditions
12:54 AM 64.0 °F - 55.9 °F 75% 30.14 in 10.0 mi Calm Calm - N/A   Mostly Cloudy
1:54 AM 64.0 °F - 55.9 °F 75% 30.14 in 10.0 mi Calm Calm - N/A   Mostly Cloudy
2:54 AM 62.1 °F - 57.0 °F 84% 30.14 in 10.0 mi SSE 3.5 mph - N/A   Mostly Cloudy
3:54 AM 62.1 °F - 57.0 °F 84% 30.12 in 10.0 mi Calm Calm - N/A   Mostly Cloudy
4:54 AM 61.0 °F - 57.0 °F 87% 30.11 in 10.0 mi SSW 5.8 mph - N/A   Mostly Cloudy
5:54 AM 62.1 °F - 57.9 °F 86% 30.11 in 10.0 mi SSW 4.6 mph - N/A   Mostly Cloudy
6:54 AM 63.0 °F - 59.0 °F 87% 30.11 in 10.0 mi SSW 3.5 mph - N/A   Mostly Cloudy
7:54 AM 64.9 °F - 61.0 °F 87% 30.11 in 10.0 mi WSW 4.6 mph - N/A   Mostly Cloudy
8:54 AM 70.0 °F - 64.0 °F 81% 30.11 in 10.0 mi SW 8.1 mph - N/A   Mostly Cloudy
9:54 AM 73.9 °F - 64.0 °F 71% 30.12 in 10.0 mi WSW 9.2 mph - N/A   Mostly Cloudy
10:54 AM 80.1 °F 81.5 °F 63.0 °F 56% 30.10 in 10.0 mi WSW 6.9 mph - N/A   Scattered Clouds
11:54 AM 81.0 °F 81.9 °F 62.1 °F 52% 30.11 in 10.0 mi NNW 8.1 mph - N/A   Mostly Cloudy
12:54 PM 77.0 °F - 62.1 °F 60% 30.12 in 10.0 mi North 12.7 mph - 0.00 in   Mostly Cloudy
1:54 PM 73.0 °F - 61.0 °F 66% 30.12 in 10.0 mi North 9.2 mph - 0.00 in   Overcast
2:54 PM 72.0 °F - 60.1 °F 66% 30.12 in 10.0 mi North 10.4 mph - 0.00 in Rain Light Rain
3:54 PM 73.0 °F - 60.1 °F 64% 30.11 in 10.0 mi North 12.7 mph - 0.00 in   Overcast
4:54 PM 73.0 °F - 59.0 °F 61% 30.12 in 10.0 mi North 10.4 mph - N/A   Mostly Cloudy
5:54 PM 70.0 °F - 59.0 °F 68% 30.14 in 10.0 mi North 8.1 mph - N/A   Overcast
6:54 PM 70.0 °F - 60.1 °F 71% 30.15 in 10.0 mi North 4.6 mph - N/A   Mostly Cloudy
7:54 PM 66.9 °F - 60.1 °F 79% 30.17 in 10.0 mi Calm Calm - N/A   Mostly Cloudy
8:54 PM 64.9 °F - 60.1 °F 84% 30.19 in 10.0 mi Calm Calm - N/A   Scattered Clouds
9:54 PM 64.0 °F - 57.0 °F 78% 30.21 in 10.0 mi North 5.8 mph - N/A   Scattered Clouds
10:54 PM 63.0 °F - 55.9 °F 78% 30.22 in 10.0 mi NNW 4.6 mph - N/A   Partly Cloudy
11:54 PM 61.0 °F - 55.0 °F 81% 30.23 in 10.0 mi NNW 4.6 mph - N/A   Clear